Phoenix, AZ

9:00 PM MST on November 21, 2017 (GMT -0700)
Phoenix Sky Harbor International

Weather History for KPHX - May, 2014

Change the Weather History Date:

Saturday, May 17, 2014

  Actual Average Record
Temperature  
Mean Temperature 89 °F 82 °F  
Max Temperature 104 °F 95 °F 108 °F (1970)
Min Temperature 74 °F 70 °F 49 °F (1943)
Degree Days  
Heating Degree Days 0 0  
Month to date heating degree days 0 0  
Since 1 July heating degree days 546 934  
Cooling Degree Days 24 17  
Month to date cooling degree days 263 256  
Year to date cooling degree days 768 611  
Growing Degree Days 38 (Base 50)    
Moisture  
Dew Point 18 °F    
Average Humidity 11    
Maximum Humidity 18    
Minimum Humidity 3    
Precipitation  
Precipitation 0.00 in 0.01 in 0.09 in (1949)
Month to date precipitation 0.00 0.07  
Year to date precipitation 0.99 3.17  
Snow  
Snow 0.00 in - - ()
Month to date snowfall 0.0  
Year to date snowfall 0.0  
Since 1 July snowfall 0.0  
Snow Depth 0.00 in    
Sea Level Pressure  
Sea Level Pressure 29.74 in    
Wind  
Wind Speed 8 mph (South)    
Max Wind Speed 22 mph    
Max Gust Speed 26 mph    
Visibility 10 miles    
Events      
T = Trace of Precipitation, MM = Missing Value Source: NWS Daily Summary

Daily Weather History Graph

Daily Weather History Graph

Search for Another Location

Airport or City:

Trip Planner

Search our weather history database for the weather conditions in past years. The results will help you decide how hot, cold, wet, or windy it might be!

Date:

Astronomy

May. 17, 2014 Rise Set
Actual Time 5:26 AM MST 7:22 PM MST
Civil Twilight 4:58 AM MST 7:50 PM MST
Nautical Twilight 4:25 AM MST 8:24 PM MST
Astronomical Twilight 3:49 AM MST 8:59 PM MST
Moon 10:28 PM MST (5/17) 8:12 AM MST (5/17)
Length of Visible Light 14h 51m
Length of Day
13h 56m
Waning Gibbous, 88% of the Moon is Illuminated
May 17
Waning Gibbous
May 21
Last Quarter
May 28
New
Jun 5
First Quarter
Jun 12
Full

Hourly Weather History & Observations

Time (MST) Temp. Dew Point Humidity Pressure Visibility Wind Dir Wind Speed Gust Speed Precip Events Conditions
12:51 AM 86.0 °F 19.9 °F 9% 29.75 in 10.0 mi Variable 4.6 mph - N/A   Mostly Cloudy
1:51 AM 87.8 °F 17.6 °F 8% 29.81 in 10.0 mi WSW 9.2 mph - N/A   Mostly Cloudy
2:51 AM 84.9 °F 19.9 °F 9% 29.75 in 10.0 mi North 4.6 mph - N/A   Mostly Cloudy
3:51 AM 77.0 °F 30.9 °F 19% 29.76 in 10.0 mi East 6.9 mph - N/A   Mostly Cloudy
4:51 AM 75.9 °F 24.1 °F 15% 29.77 in 10.0 mi East 9.2 mph - N/A   Mostly Cloudy
5:51 AM 75.0 °F 24.1 °F 15% 29.78 in 10.0 mi East 8.1 mph - N/A   Overcast
6:51 AM 75.9 °F 25.0 °F 15% 29.80 in 10.0 mi ESE 10.4 mph - N/A   Overcast
7:51 AM 81.0 °F 26.1 °F 13% 29.81 in 10.0 mi East 8.1 mph - N/A   Overcast
8:51 AM 84.9 °F 26.1 °F 12% 29.81 in 10.0 mi ESE 8.1 mph - N/A   Mostly Cloudy
9:51 AM 89.1 °F 27.0 °F 11% 29.81 in 10.0 mi ESE 9.2 mph - N/A   Overcast
10:51 AM 95.0 °F 16.0 °F 6% 29.79 in 10.0 mi SSW 6.9 mph - N/A   Overcast
11:51 AM 97.0 °F 14.0 °F 5% 29.77 in 10.0 mi West 4.6 mph - N/A   Overcast
12:51 PM 99.0 °F 12.9 °F 4% 29.75 in 10.0 mi SSW 6.9 mph - N/A   Mostly Cloudy
1:51 PM 100.0 °F 12.0 °F 4% 29.72 in 10.0 mi North 6.9 mph - N/A   Mostly Cloudy
2:51 PM 102.2 °F 10.4 °F 4% 29.76 in 10.0 mi South 8.1 mph - N/A   Mostly Cloudy
3:51 PM 102.9 °F 8.1 °F 4% 29.68 in 10.0 mi West 13.8 mph 25.3 mph N/A   Mostly Cloudy
4:51 PM 102.9 °F 7.0 °F 4% 29.66 in 10.0 mi West 12.7 mph 26.5 mph N/A   Mostly Cloudy
5:51 PM 102.2 °F 8.6 °F 4% 29.70 in 10.0 mi West 17.3 mph - N/A   Mostly Cloudy
6:51 PM 100.0 °F 7.0 °F 4% 29.64 in 10.0 mi West 13.8 mph - N/A   Mostly Cloudy
7:51 PM 98.1 °F 10.0 °F 4% 29.65 in 10.0 mi West 11.5 mph - N/A   Mostly Cloudy
8:51 PM 91.0 °F 17.1 °F 7% 29.66 in 10.0 mi SW 3.5 mph - N/A   Scattered Clouds
9:51 PM 88.0 °F 21.0 °F 9% 29.68 in 10.0 mi SSW 4.6 mph - N/A   Scattered Clouds
10:51 PM 87.1 °F 19.9 °F 8% 29.69 in 10.0 mi SSE 4.6 mph - N/A   Scattered Clouds
11:51 PM 82.9 °F 24.1 °F 12% 29.69 in 10.0 mi East 6.9 mph - N/A   Scattered Clouds